Regional Weather Roundup
Issued by NWS

Home | Current Version | Previous Version | Text Only | Print | Product List | Glossary Off
Versions: 1 2 3 4 5 6 7 8 9 10 11 12 13 14 15 16 17 18 19 20 21 22 23 24 25 26 27 28 29 30 31 32 33 34 35 36 37 38 39 40 41 42 43 44 45 46 47 48 49 50

000
ASUS43 KLSX 130907
RWRMO

WEATHER SUMMARY FOR MISSOURI
NATIONAL WEATHER SERVICE SPRINGFIELD MO
400 AM CDT SUN JUL 13 2014

NOTE: "FAIR" INDICATES FEW OR NO CLOUDS BELOW 12,000 FEET WITH NO
       SIGNIFICANT WEATHER AND/OR OBSTRUCTIONS TO VISIBILITY.
       CURRENT SKY AND/OR WEATHER CONDITIONS ARE NOT AVAILABLE FOR
       CHILLICOTHE AND FARMINGTON.

MOZ001>031-035>038-043-044-053-054-131000-
...NORTHERN AND WESTERN MISSOURI...

CITY           SKY/WX    TMP DP  RH WIND       PRES   REMARKS
KANSAS CTY INT CLOUDY    73  69  87 N10       30.05R
KANSAS C DTWN  CLOUDY    78  69  73 N9        30.01S
LEE`S SUMMIT   CLOUDY    79  67  66 W6        30.02R
ST JOSEPH      TSTM      71  70  96 S7        30.03F
CHILLICOTHE      N/A     74  70  87 NW7       30.01R
KIRKSVILLE     LGT RAIN  74  74 100 N6        30.00S

$$
MOZ066>068-077>081-088>096-101>105-131000-
...SOUTHWEST MISSOURI...

CITY           SKY/WX    TMP DP  RH WIND       PRES   REMARKS
SPRINGFIELD    CLEAR     72  66  81 S8        30.04S
JOPLIN         CLEAR     79  64  60 S14       30.03S

$$
MOZ032>034-039>042-045>050-055>058-069>072-131000-
...CENTRAL MISSOURI...

CITY           SKY/WX    TMP DP  RH WIND       PRES   REMARKS
COLUMBIA       PTCLDY    77  67  71 SW10      29.98F
JEFFERSON CITY MOCLDY    77  68  73 E3        29.97F
ROLLA          CLEAR     73  68  84 SW8       30.01S
SEDALIA        PTCLDY    78  66  66 SW10      29.99F
WHITEMAN AFB   MOCLDY    76  60  57 N14       30.01R
OSAGE BEACH    CLEAR     77  64  65 W3        30.00F

$$
MOZ051-052-059>065-131000-
...EAST CENTRAL MISSOURI...

CITY           SKY/WX    TMP DP  RH WIND       PRES   REMARKS
ST LOUIS INTL  MOCLDY    82  70  66 SW14      29.97F
SPIRIT OF STL  CLEAR     79  70  74 SW10      29.95F
ST CHARLES     PTCLDY    79  70  74 W6        29.95R

$$
MOZ072>076-082>087-097>100-106>115-131000-
...SOUTH CENTRAL AND SOUTHEAST MISSOURI...

CITY           SKY/WX    TMP DP  RH WIND       PRES   REMARKS
CAPE GIRARDEAU CLEAR     77  73  87 CALM      30.01S
FARMINGTON       N/A    N/A N/A N/A MISG        N/A
POPLAR BLUFF   CLEAR     76  72  87 SW3       30.01S
WEST PLAINS    CLEAR     73  69  87 SW5       30.07S

$$


USA.gov is the U.S. government's official web portal to all federal, state and local government web resources and services.